Погода в Ринконе

Пуэрто-Рико     18°20′24″N   67°14′01″W
темп.,
°C
ветер,
м/с
пор.,
м/с
влажн.,
%
обл.,
%
осадки,
мм/ч
давл.,
гПа
погр.,
м
9 августа, вт
вт923:00+27всв811780 0.0 1016594
02:00+27всв710771 0.0 1014605
05:00+27всв57780 0.0 1015365
08:00+27в45724 0.0 1016336
11:00+30св45629 0.0 1017293
14:00+30св686662 0.0 1015433
17:00+29св7871100 0.1 1015547
20:00+27св91281100 0.1 1016665
10 августа, ср
ср1023:00+27всв81080100 0.1 1016541
02:00+27всв578135 0.3 1015351
05:00+26в338153 0.0 1015217
08:00+26в217760 0.0 1017219
11:00+27з327395 0.0 1017318
14:00+28зсз4470100 0.1 1016553
17:00+29зюз126698 0.3 1015376
20:00+28св4577100 0.6 1016351
11 августа, чт
чт1123:00+28вюв2274100 0.1 1016266
02:00+27вюв2276100 0.1 1014168
05:00+26всв32745 0.0 1014200
08:00+26всв227120 0.0 1015182
11:00+28з336835 0.0 1016307
14:00+28з237094 1.6 1015381
17:00+29ссв126597 2.3 1014552
20:00+28юз337360 2.6 1015462
12 августа, пт
пт1223:00+27св46777 0.0 1016399
02:00+26вюв33799 0.0 1014260
05:00+26в227787 0.0 1014167
08:00+26в117491 0.0 1015189
11:00+27сз3273100 0.0 1016310
14:00+29сз657194 0.6 1015691
17:00+29ссв347246 0.4 1013403
20:00+28в237526 0.8 1015360
13 августа, сб
сб1323:00+27ююв22757 0.0 1015385
02:00+26ссв237559 0.0 1014309
05:00+26вюв33783 0.0 1014251
08:00+26всв23755 0.0 1016203
11:00+28ююз23695 0.0 1016279
14:00+28юз446996 0.4 1015594
17:00+28сз117073 3.3 1014387
20:00+27св567915 4.1 1014430